[[{"header":{"parameterUnit":"m.s-1","parameterCategory":1,"la1":30.2991,"la2":30.254,"lo1":-89.0895,"lo2":-89.0444,"dy":0.0017,"dx":0.0017,"nx":28,"ny":28,"refTime":"2024-09-27T21:00:00:Z","depth":0,"parameterNumber":2,"parameterNumberName":"U-component_of_WINDS"},"data":[0,0,0,0,0,0,0,0,0,0,0,0,0,0,0,0,0,0,0,0,0,0,0,0,0,0,0,0,0,0,0,0,0,0,0,0,0,0,0,0,0,0,0,0,0,0,0,0,0,0,0,0,0,0,0,0,0,0,6.3373,6.3376,0,6.3635,6.3638,6.364,6.3587,6.3582,6.3577,6.3573,6.3844,6.3855,6.3867,0,0,0,0,0,0,0,0,0,0,0,0,0,6.2828,6.2838,6.3373,6.3376,6.3379,6.3634,6.3638,6.3641,6.3588,6.3582,6.3576,6.357,6.384,6.3854,6.3868,0,0,0,0,0,0,0,0,0,0,0,0,0,6.3075,6.2841,6.3372,6.3383,6.3387,6.3633,6.3638,6.3642,6.3589,6.3582,6.3574,6.3568,6.3835,6.3852,6.387,6.4122,0,0,6.3923,6.3931,0,0,0,0,0,0,0,0,6.3061,6.3095,6.3378,6.3383,6.3387,6.357,6.3545,6.3803,6.3591,6.3512,6.3572,6.3564,6.3759,6.3782,6.3847,6.4135,6.4147,6.3925,6.3935,6.3943,6.3948,0,0,0,0,0,0,0,6.3044,6.3083,6.3476,6.3383,6.3388,6.3375,6.3402,6.3594,6.3673,6.3519,6.3515,6.3547,6.376,6.383,6.3853,6.4151,6.3924,6.394,6.3951,6.3958,6.4655,6.4663,0,0,0,0,0,0,6.3022,6.3069,6.3468,6.3484,6.3203,6.3391,6.3421,6.3519,6.3671,6.3687,6.3553,6.3543,6.3804,6.3833,6.3863,6.4165,6.3943,6.3959,6.3969,6.4647,6.4657,6.4666,0,0,0,0,0,0,6.3011,6.3058,6.3458,6.3276,6.3326,6.3408,6.3518,6.3528,6.3598,6.3696,6.371,6.361,6.3799,6.3838,6.4057,6.4174,6.3967,6.3983,6.4638,6.465,6.4661,6.4775,0,0,0,0,0,0,6.2995,6.3054,6.3151,6.3278,6.3336,6.3648,6.3526,6.3538,6.3628,6.3619,6.3754,6.3769,6.3797,6.4031,6.4075,6.4194,6.3997,6.4628,6.4643,6.4658,6.4761,6.4789,6.4813,0,0,0,0,0,6.2976,6.3174,6.3157,6.3205,6.3458,6.3655,6.3687,6.3714,6.3638,6.3736,6.3798,6.3765,6.4155,6.4054,6.4103,6.4229,6.4621,6.4639,6.4656,6.4749,6.4784,6.4813,0,0,0,0,0,0,6.3061,6.3191,6.3173,6.3418,6.3526,6.3645,6.3769,6.375,6.3882,6.3867,6.3895,6.3927,6.4149,6.4212,6.4097,6.448,6.4377,6.4405,6.4431,6.4464,6.449,6.4469,6.4011,0,0,0,0,0,6.3108,6.3256,6.3362,6.3568,6.3623,6.3687,6.3774,6.3784,6.3897,6.3942,6.4021,6.4132,6.4279,6.4376,6.4517,6.477,6.4797,6.4881,6.4908,6.4929,6.4952,6.5087,6.5125,6.4725,6.4725,6.4724,0,0,6.3207,6.3296,6.3388,6.3588,6.3672,6.3824,6.3726,6.3892,6.4004,6.3968,6.4178,6.424,6.4366,6.4603,6.4711,6.4662,6.5069,6.4952,6.4968,6.498,6.511,6.5147,6.5181,6.4737,6.4735,6.4733,0,0,6.3464,6.3548,6.3727,6.3813,6.3941,6.3982,6.4025,6.4148,6.4186,6.4398,6.4372,6.4508,6.4761,6.4851,6.4929,6.5218,6.5191,6.5264,6.54,6.5531,6.5563,6.5591,6.569,6.5726,6.5287,6.5288,6.5288,0,6.3571,6.3798,6.3822,6.3989,6.4076,6.4049,6.4229,6.4312,6.4481,6.4541,6.4484,6.4799,6.4883,6.5137,6.5207,6.5274,6.5322,6.5247,6.5556,6.5584,6.5611,6.5706,6.5744,6.5295,6.5295,6.5294,6.5293,0,6.3921,6.408,6.4209,6.4369,6.4472,6.4646,6.4695,6.4796,6.4797,6.4844,6.5058,6.5157,6.5316,6.5378,6.5383,6.5633,6.5598,6.5549,6.5445,6.5656,6.5746,6.5783,6.5306,6.5304,6.5301,6.5299,0,0,6.4239,6.4409,6.4455,6.4526,6.4665,6.4788,6.4959,6.5113,6.5197,6.5315,6.5458,6.5672,6.5625,6.5715,6.5729,6.5845,6.6063,6.5781,6.5784,6.5827,6.6341,6.6375,6.6417,6.6047,6.6054,6.606,6.633,0,6.4506,6.4807,6.4832,6.5103,6.5248,6.5223,6.5372,6.5473,6.5521,6.5651,6.5705,6.5854,6.5784,6.5837,6.5951,6.6012,6.6166,6.5994,6.6179,6.6185,6.6144,6.6465,6.6502,6.6752,6.6365,6.6371,6.6376,0,6.4858,6.4982,6.5267,6.5382,6.5443,6.5577,6.5718,6.5843,6.5956,6.5983,6.6082,6.608,6.6255,6.6146,6.6388,6.6269,6.6347,6.6389,6.6399,6.6415,6.6291,6.6486,6.6833,6.6869,6.6432,6.6428,6.6423,0,6.5056,6.5296,6.5496,6.5558,6.5698,6.5792,6.5855,6.5961,6.605,6.6174,6.6232,6.6376,6.6454,6.6565,6.6602,6.652,6.6841,6.6736,6.6866,6.6865,6.6933,6.6927,6.7293,6.6988,6.6988,6.6987,6.6986,0,6.535,6.5524,6.5586,6.5709,6.5902,6.593,6.6121,6.6179,6.6273,6.6406,6.6395,6.6521,6.6562,6.6695,6.6725,6.6918,6.6954,6.698,6.6985,6.6979,6.6975,6.7028,6.701,6.6997,6.6995,6.6993,6.6991,0,6.5604,6.5652,6.5868,6.5982,6.6015,6.6152,6.625,6.6368,6.6413,6.6582,6.6623,6.6695,6.6849,6.6897,6.7085,6.7105,6.7329,6.7321,6.729,6.729,6.7416,6.7402,6.7826,6.7882,6.7544,6.7547,6.755,0,6.5786,6.5919,6.6047,6.6134,6.62,6.6342,6.6432,6.6464,6.6559,6.6697,6.6798,6.695,6.7074,6.7322,6.7391,6.7534,6.7527,6.7666,6.7548,6.7537,6.7525,6.7515,6.7527,6.7687,6.769,6.7693,6.7696,0,6.6104,6.6121,6.6251,6.639,6.6497,6.6609,6.6716,6.6788,6.6836,6.6943,6.71,6.7195,6.7385,6.7536,6.768,6.7745,6.7728,6.7732,6.7769,6.7763,6.7738,6.7749,6.7347,6.7722,6.7719,6.7717,6.7716,6.7715,6.6325,6.6441,6.6547,6.6692,6.6775,6.6875,6.699,6.7049,6.718,6.7335,6.7347,6.7516,6.7624,6.7816,6.7888,6.802,6.798,6.8035,6.8048,6.806,6.8068,6.7719,6.8048,6.8047,6.8046,6.8046,6.8045,0,6.6639,6.6706,6.6839,6.6987,6.7101,6.7074,6.719,6.7287,6.7435,6.7537,6.7658,6.7837,6.7983,6.8063,6.8208,6.8298,6.8294,6.8335,6.8327,6.8341,6.8098,6.805,6.8336,6.8336,6.8336,6.8336,6.8336,6.8335,6.6815,6.7007,6.7037,6.727,6.7336,6.75,6.7568,6.7659,6.774,6.7939,6.806,6.811,6.8203,6.8354,6.8486,6.8506,6.8559,6.8604,6.8619,6.8389,6.8359,6.8331,6.8285,6.8616,6.8616,6.885,6.8852,6.8854]},{"header":{"parameterUnit":"m.s-1","parameterCategory":1,"la1":30.2991,"la2":30.254,"lo1":-89.0895,"lo2":-89.0444,"dy":0.0017,"dx":0.0017,"nx":28,"ny":28,"refTime":"2024-09-27T21:00:00:Z","depth":0,"parameterNumber":3,"parameterNumberName":"V-component_of_WINDS"},"data":[0,0,0,0,0,0,0,0,0,0,0,0,0,0,0,0,0,0,0,0,0,0,0,0,0,0,0,0,0,0,0,0,0,0,0,0,0,0,0,0,0,0,0,0,0,0,0,0,0,0,0,0,0,0,0,0,0,0,3.0786,3.0787,0,3.0877,3.0878,3.0879,3.0843,3.0841,3.0839,3.0837,3.0929,3.0933,3.0937,0,0,0,0,0,0,0,0,0,0,0,0,0,3.0578,3.0582,3.0786,3.0787,3.0788,3.0877,3.0878,3.088,3.0843,3.0841,3.0838,3.0836,3.0927,3.0932,3.0938,0,0,0,0,0,0,0,0,0,0,0,0,0,3.0669,3.0584,3.0786,3.0781,3.0782,3.0877,3.0878,3.088,3.0844,3.0841,3.0837,3.0834,3.0925,3.0932,3.0938,3.1043,0,0,3.0959,3.0962,0,0,0,0,0,0,0,0,3.0664,3.0677,3.0781,3.0782,3.0782,3.0845,3.0839,3.0935,3.0845,3.082,3.0837,3.0833,3.0903,3.0912,3.0936,3.1048,3.1052,3.0959,3.0963,3.0966,3.0968,0,0,0,0,0,0,0,3.0658,3.0673,3.0822,3.0782,3.0783,3.0773,3.0783,3.0857,3.0879,3.0822,3.082,3.0831,3.0903,3.0929,3.0938,3.1053,3.0959,3.0965,3.0969,3.0972,3.1254,3.1257,0,0,0,0,0,0,3.0651,3.0668,3.0819,3.0825,3.0714,3.078,3.079,3.0828,3.0878,3.0882,3.0834,3.0829,3.092,3.093,3.0941,3.1066,3.0966,3.0972,3.0976,3.1251,3.1255,3.1259,0,0,0,0,0,0,3.0647,3.0665,3.0816,3.0746,3.0764,3.0787,3.083,3.0832,3.0858,3.0886,3.089,3.0857,3.0918,3.0931,3.1018,3.1069,3.0975,3.0981,3.1246,3.1252,3.1257,3.1319,0,0,0,0,0,0,3.0641,3.0664,3.0705,3.0747,3.0768,3.0892,3.0833,3.0836,3.087,3.0865,3.0909,3.0913,3.0916,3.1008,3.1025,3.1076,3.0987,3.1242,3.1249,3.1255,3.1312,3.1325,3.1337,0,0,0,0,0,3.0634,3.0719,3.0707,3.0726,3.082,3.0895,3.0907,3.0909,3.0874,3.0915,3.0933,3.0912,3.106,3.1017,3.1035,3.109,3.1239,3.1247,3.1255,3.1307,3.1323,3.1336,0,0,0,0,0,0,3.0682,3.0724,3.0712,3.0813,3.0851,3.0889,3.0941,3.0927,3.0975,3.0968,3.0968,3.0978,3.1067,3.1087,3.1038,3.1193,3.1144,3.1156,3.1178,3.1193,3.1205,3.1199,3.0992,0,0,0,0,0,3.0705,3.0763,3.0797,3.0882,3.0902,3.0918,3.0951,3.0949,3.0989,3.1004,3.1029,3.1067,3.1122,3.1158,3.1211,3.1314,3.1323,3.1361,3.1373,3.1383,3.1393,3.1448,3.1465,3.1285,3.1284,3.1284,0,0,3.0752,3.0782,3.0819,3.0893,3.0922,3.0982,3.0932,3.0998,3.1042,3.1014,3.1097,3.1116,3.1159,3.1254,3.1297,3.1273,3.1445,3.1393,3.14,3.1406,3.1458,3.1475,3.149,3.129,3.1289,3.1288,0,0,3.0868,3.0897,3.0971,3.1001,3.1046,3.1056,3.1073,3.1114,3.1125,3.1209,3.1189,3.1241,3.1336,3.1367,3.1395,3.1521,3.1503,3.1538,3.1602,3.1656,3.167,3.1682,3.1727,3.1743,3.1548,3.1548,3.1548,0,3.092,3.1011,3.1011,3.1078,3.1111,3.1088,3.1162,3.1191,3.1251,3.1274,3.1246,3.1364,3.1391,3.1493,3.1523,3.1547,3.1566,3.1533,3.1668,3.168,3.1692,3.1734,3.1751,3.1552,3.1552,3.1551,3.1551,0,3.1073,3.1135,3.119,3.1248,3.1286,3.1357,3.1367,3.1406,3.14,3.1412,3.1497,3.1528,3.1586,3.161,3.1605,3.171,3.1694,3.1667,3.1618,3.1713,3.1753,3.1769,3.1558,3.1556,3.1555,3.1554,0,0,3.1223,3.1279,3.1299,3.1325,3.1372,3.142,3.1488,3.1545,3.1578,3.1619,3.1676,3.1757,3.1732,3.1764,3.1762,3.1809,3.1905,3.1776,3.1777,3.1799,3.2022,3.2042,3.2061,3.1893,3.1897,3.1899,3.2019,0,3.1343,3.1464,3.1466,3.1577,3.1634,3.1612,3.1672,3.1707,3.172,3.1769,3.1783,3.184,3.1803,3.1822,3.1868,3.1884,3.195,3.1875,3.1946,3.1948,3.1936,3.2082,3.2104,3.2215,3.2034,3.2037,3.2039,0,3.1499,3.1545,3.1662,3.17,3.1724,3.1777,3.1829,3.1877,3.1915,3.1921,3.1956,3.1946,3.2015,3.1963,3.2057,3.2006,3.2034,3.2047,3.2051,3.2058,3.2,3.2093,3.2251,3.2268,3.2063,3.2061,3.206,0,3.1596,3.1688,3.1769,3.1792,3.1838,3.1876,3.1896,3.1931,3.1965,3.2009,3.2031,3.2083,3.2111,3.2151,3.2155,3.2117,3.2249,3.2198,3.2256,3.2256,3.2285,3.2283,3.245,3.2303,3.2303,3.2303,3.2302,0,3.173,3.1802,3.1814,3.1864,3.1944,3.1944,3.2023,3.204,3.2071,3.2123,3.2107,3.2157,3.2159,3.2209,3.2213,3.229,3.2302,3.2309,3.2309,3.231,3.231,3.2329,3.2322,3.2307,3.2306,3.2305,3.2305,0,3.1853,3.1863,3.1951,3.1987,3.1997,3.2054,3.2085,3.2132,3.2142,3.2209,3.2224,3.2241,3.2299,3.2307,3.2375,3.2377,3.247,3.2462,3.2457,3.2456,3.2513,3.2508,3.2699,3.2723,3.2561,3.2562,3.2563,0,3.1937,3.1993,3.2034,3.2068,3.2091,3.2146,3.218,3.2181,3.2217,3.2264,3.2305,3.2362,3.2407,3.2501,3.2518,3.257,3.2563,3.2626,3.257,3.257,3.2563,3.256,3.2565,3.2637,3.2639,3.264,3.2641,0,3.2086,3.2088,3.2138,3.219,3.2231,3.2272,3.231,3.2338,3.2345,3.2385,3.2445,3.248,3.2549,3.2605,3.2655,3.2675,3.2659,3.2659,3.2675,3.2677,3.2672,3.2675,3.2486,3.2654,3.2653,3.2652,3.2652,3.2651,3.2192,3.224,3.2276,3.2332,3.2361,3.2397,3.2443,3.2459,3.2508,3.2565,3.2562,3.2627,3.2662,3.2729,3.2752,3.2802,3.2781,3.2805,3.2811,3.2816,3.2822,3.2664,3.2811,3.2811,3.2811,3.281,3.281,0,3.234,3.2362,3.2413,3.2467,3.2511,3.2492,3.2533,3.257,3.2628,3.2662,3.2707,3.2774,3.2828,3.2849,3.2901,3.2937,3.2931,3.2951,3.2948,3.2953,3.2838,3.2819,3.2955,3.2955,3.2955,3.2955,3.2955,3.2955,3.2422,3.2501,3.2508,3.26,3.2621,3.2685,3.271,3.2743,3.277,3.2846,3.2891,3.2904,3.2933,3.2987,3.3035,3.3039,3.3059,3.3082,3.3084,3.2976,3.2961,3.2947,3.2929,3.3087,3.3087,3.3195,3.3196,3.3197]}]]